Location: *
(34.8620°S, 39.3380°E)
Time: 17:33:33
(UTC+00:00)

Cosmos 990 Rocket - Pass Details

Date: 27 July 2021
Orbit: 747 x 769 km, 74.0° (Epoch: 22 September)

Event Time Altitude Azimuth Distance (km) Brightness Sun altitude
Rises 03:20:41 0° 198° (SSW) 3,273 6.9 -12.5°
Reaches altitude 10° 03:23:05 10° 197° (SSW) 2,338 6.2 -12.0°
Maximum altitude 03:28:25 90° 340° (NNW) 780 4.0 -11.0°
Drops below altitude 10° 03:33:40 10° 16° (NNE) 2,299 6.9 -9.9°
Sets 03:36:00 0° 16° (NNE) 3,214 7.7 -9.5°
